CORVUS BC1

Last updated on Tue Oct 21 2025 00:03:53 GMT+0000 (Coordinated Universal Time)

1 42847U 17042Y 25293.58925800 .00007300 00000+0 52711-3 0 9995 2 42847 97.3874 100.6047 0012351 179.2218 180.9030 15.04311986451048
UTC large
Height (km)
Speed (km/s)
/
Latitude / Longitude
Inclination (degrees)
Orbital Period (minutes)
Azimuth
Elevation
Range (km)
Doppler Factor

Next 0 passes for location: London (51.5072 / 0.1276)

Sorry there are no passes over London.